Tracking 20083 objects as of 12-Dec-2019
HD Live streaming from Space Station
objects crossing your sky now

COSMOS 2251 DEB

Track COSMOS 2251 DEB now!
10-day predictions


NORAD ID: 34390
Int'l Code: 1993-036QF
Perigee: 659.0 km
Apogee: 763.3 km
Inclination: 74.1 °
Period: 98.9 minutes
Semi major axis: 7082 km
RCS: 0.0402 m2 (small)
Launch date: June 16, 1993
Source: Commonwealth of Independent States (former USSR) (CIS)
Launch site: PLESETSK MISSILE AND SPACE COMPLEX (PKMTR)

Note: This is SATELLITE DEBRIS
aabbcc
Your satellite tracking list
Your tracking list is empty




NASA's NSSDC Master Catalog

Two Line Element Set (TLE):
1 34390U 93036QF  19344.64421410 +.00000672 +00000-0 +15167-3 0  9991
2 34390 074.0899 188.9263 0073625 044.9480 010.2798 14.56656303570465
Source of the keplerian elements: AFSPC